Location: Doverdale
(52.2833°N, 2.2000°W)
Time: 03:31:48
(UTC+00:00)

ERBS - Pass Details

Date: 29 October 2020
Orbit: 407 x 422 km, 57.0° (Epoch: 27 November)

Event Time Altitude Azimuth Distance (km) Brightness Sun altitude
Rises 18:15:12 0° 289° (WNW) 2,368 7.4 -14.3°
Reaches altitude 10° 18:17:23 10° 298° (WNW) 1,506 6.0 -14.6°
Maximum altitude 18:20:33 38° 8° (N) 668 3.1 -15.1°
Enters shadow 18:21:38 29° 51° (NE) 813 3.2 -15.3°
